TimeMDT,TemperatureF,Dew PointF,Humidity,Sea Level PressureIn,VisibilityMPH,Wind Direction,Wind SpeedMPH,Gust SpeedMPH,PrecipitationIn,Events,Conditions,WindDirDegrees,DateUTC
12:53 AM,37.0,32.0,82,30.13,10.0,Calm,Calm,-,N/A,,Clear,0,2013-03-15 06:53:00
1:53 AM,41.0,32.0,70,30.08,10.0,South,4.6,-,N/A,,Clear,190,2013-03-15 07:53:00
2:53 AM,37.9,30.9,76,30.11,10.0,NNW,8.1,-,N/A,,Clear,340,2013-03-15 08:53:00
3:53 AM,37.9,32.0,79,30.08,10.0,East,3.5,-,N/A,,Clear,100,2013-03-15 09:53:00
4:53 AM,37.9,32.0,79,30.06,10.0,SSW,6.9,-,N/A,,Clear,200,2013-03-15 10:53:00
5:53 AM,36.0,30.0,79,30.08,10.0,Calm,Calm,-,N/A,,Clear,0,2013-03-15 11:53:00
6:53 AM,33.1,30.0,89,30.09,10.0,Calm,Calm,-,N/A,,Clear,0,2013-03-15 12:53:00
7:53 AM,39.0,30.9,73,30.10,10.0,SSW,11.5,-,N/A,,Mostly Cloudy,200,2013-03-15 13:53:00
8:53 AM,39.9,32.0,73,30.11,10.0,SSW,8.1,-,N/A,,Mostly Cloudy,200,2013-03-15 14:53:00
9:53 AM,42.1,33.1,70,30.12,10.0,SW,4.6,-,N/A,,Scattered Clouds,220,2013-03-15 15:53:00
10:53 AM,48.0,32.0,54,30.11,10.0,SSW,10.4,-,N/A,,Scattered Clouds,210,2013-03-15 16:53:00
11:53 AM,50.0,33.1,52,30.11,10.0,SW,17.3,-,N/A,,Mostly Cloudy,220,2013-03-15 17:53:00
12:53 PM,53.1,33.1,47,30.08,10.0,SSW,18.4,-,N/A,,Partly Cloudy,210,2013-03-15 18:53:00
1:53 PM,55.0,35.1,47,30.05,10.0,SSW,15.0,-,N/A,,Partly Cloudy,210,2013-03-15 19:53:00
2:53 PM,55.0,34.0,45,30.03,10.0,SSW,16.1,-,N/A,,Clear,210,2013-03-15 20:53:00
3:53 PM,55.9,35.1,45,30.00,10.0,SSW,16.1,-,N/A,,Clear,210,2013-03-15 21:53:00
4:53 PM,57.0,34.0,42,29.99,10.0,SSW,11.5,-,N/A,,Clear,210,2013-03-15 22:53:00
5:53 PM,55.9,37.0,49,29.99,10.0,SW,6.9,-,N/A,,Clear,220,2013-03-15 23:53:00
6:53 PM,54.0,35.1,49,29.99,10.0,SSW,12.7,-,N/A,,Clear,210,2013-03-16 00:53:00
7:53 PM,48.9,34.0,56,30.00,10.0,SSW,6.9,-,N/A,,Clear,210,2013-03-16 01:53:00
8:53 PM,50.0,32.0,50,29.99,10.0,South,12.7,-,N/A,,Clear,190,2013-03-16 02:53:00
9:53 PM,48.0,30.9,52,29.99,10.0,South,13.8,-,N/A,,Clear,190,2013-03-16 03:53:00
10:53 PM,46.9,30.9,54,29.98,10.0,SSW,12.7,-,N/A,,Clear,200,2013-03-16 04:53:00
11:53 PM,45.0,30.0,56,29.97,10.0,SSW,15.0,-,N/A,,Clear,210,2013-03-16 05:53:00